User: anonymous   Login
Location: Ladrillo (historical)
(32.8195°N, 117.2231°W)
Time: 12:56:34
(UTC+00:00)
Language:

Meteor 1-31 Rocket - Orbit

View from above orbital plane
View from above orbital plane
View from above satellite
View from above satellite

Ground track
Ground track

The orbit data is extracted from the following two-line orbital elements,

1 12586U 81065B   21019.14246320  .00000154  00000-0  13172-4 0  9995
2 12586  97.6433   7.2254 0019299  23.1781 337.0314 15.10912823154540
Epoch (UTC): 19 January 2021 03:25:08
Eccentricity: 0.0019299
inclination: 97.6433°
perigee height: 520 km
apogee height: 547 km
right ascension of ascending node: 7.2254°
argument of perigee: 23.1781°
revolutions per day: 15.10912823
mean anomaly at epoch: 337.0314°
orbit number at epoch: 15454

The dashed part of the orbit path shows where the satellite is in the earth's shadow,  

DLR